Location: Arpaise
(41.0333°N, 14.7333°E)
Time: 01:30:35
(UTC+00:00)

USA 267 - Pass Details

Date: 05 July 2020
Orbit: 1102 x 1106 km, 123.0° (Epoch: 09 August)

Event Time Altitude Azimuth Distance (km) Brightness Sun altitude
Exits shadow 21:33:57 29° 111° (ESE) 1,894 4.1 -22.8°
Maximum altitude 21:37:27 67° 37° (NE) 1,187 3.5 -23.1°
Drops below altitude 10° 21:43:55 10° 317° (NW) 2,964 6.4 -23.5°
Sets 21:46:25 0° 315° (NW) 3,925 7.2 -23.7°
